Weather History for Clovis, NM

Change the Weather History Date:

Wednesday, February 13, 2013

  Actual Average Record
Temperature  
Mean Temperature 38 °F -  
Max Temperature 55 °F 57 °F 83 °F (1962)
Min Temperature 21 °F 28 °F 5 °F (1948)
Degree Days  
Heating Degree Days 27    
Moisture  
Dew Point 18 °F    
Average Humidity 53    
Maximum Humidity 86    
Minimum Humidity 23    
Precipitation  
Precipitation 0.00 in - - ()
Sea Level Pressure  
Sea Level Pressure 30.01 in    
Wind  
Wind Speed 10 mph (WSW)    
Max Wind Speed 18 mph    
Max Gust Speed 26 mph    
Visibility 10 miles    
Events      
Averages and records for this station are not official NWS values.
T = Trace of Precipitation, MM = Missing Value Source: NWS Daily Summary

Daily Weather History Graph

Daily Weather History Graph

Search for Another Location

Airport:

Trip Planner

Search our weather history database for the weather conditions in past years. The results will help you decide how hot, cold, wet, or windy it might be!

Date:

Astronomy

Feb. 13, 2013 Rise Set
Actual Time 6:39 AM MST 5:34 PM MST
Civil Twilight 6:13 AM MST 6:00 PM MST
Nautical Twilight 5:43 AM MST 6:29 PM MST
Astronomical Twilight 5:14 AM MST 6:58 PM MST
Moon 8:21 AM MST (2/13) 9:25 PM MST (2/13)
Length of Visible Light 11h 46m
Length of Day
10h 54m
Waxing Crescent, 14% of the Moon is Illuminated
Feb 13
Waxing Crescent
Feb 17
First Quarter
Feb 25
Full
Mar 4
Last Quarter
Mar 11
New

Hourly Weather History & Observations

Time (MST) Temp. Windchill Dew Point Humidity Pressure Visibility Wind Dir Wind Speed Gust Speed Precip Events Conditions
12:15 AM 24.8 °F 15.3 °F 17.6 °F 74% 30.09 in 10.0 mi West 9.2 mph - N/A   Clear
12:35 AM 24.8 °F 15.3 °F 17.6 °F 74% 30.08 in 10.0 mi West 9.2 mph - N/A   Clear
12:55 AM 24.8 °F 15.3 °F 17.6 °F 74% 30.08 in 10.0 mi West 9.2 mph - N/A   Clear
1:15 AM 23.0 °F 13.9 °F 15.8 °F 74% 30.08 in 10.0 mi West 8.1 mph - N/A   Clear
1:35 AM 23.0 °F 13.9 °F 15.8 °F 74% 30.08 in 10.0 mi West 8.1 mph - N/A   Clear
1:55 AM 23.0 °F 13.9 °F 17.6 °F 80% 30.08 in 10.0 mi West 8.1 mph - N/A   Clear
2:15 AM 26.6 °F 17.5 °F 19.4 °F 74% 30.07 in 10.0 mi WSW 9.2 mph - N/A   Clear
2:35 AM 26.6 °F 17.5 °F 19.4 °F 74% 30.06 in 10.0 mi WSW 9.2 mph - N/A   Clear
2:55 AM 24.8 °F 16.1 °F 17.6 °F 74% 30.06 in 10.0 mi WSW 8.1 mph - N/A   Clear
3:15 AM 24.8 °F 16.1 °F 17.6 °F 74% 30.05 in 10.0 mi West 8.1 mph - N/A   Clear
3:35 AM 23.0 °F 14.7 °F 17.6 °F 80% 30.05 in 10.0 mi West 6.9 mph - N/A   Clear
3:55 AM 21.2 °F 11.7 °F 15.8 °F 80% 30.04 in 10.0 mi WSW 8.1 mph - N/A   Clear
4:15 AM 21.2 °F 12.6 °F 17.6 °F 86% 30.04 in 10.0 mi West 6.9 mph - N/A   Clear
4:35 AM 21.2 °F 11.7 °F 15.8 °F 80% 30.04 in 10.0 mi WNW 8.1 mph - N/A   Clear
5:15 AM 21.2 °F 10.1 °F 14.0 °F 74% 30.03 in 10.0 mi West 10.4 mph - N/A   Clear
5:35 AM 21.2 °F 10.1 °F 15.8 °F 80% 30.04 in 10.0 mi West 10.4 mph - N/A   Clear
5:55 AM 21.2 °F 10.9 °F 15.8 °F 80% 30.05 in 10.0 mi West 9.2 mph - N/A   Clear
6:15 AM 21.2 °F 9.5 °F 12.2 °F 68% 30.05 in 10.0 mi West 11.5 mph - N/A   Clear
6:35 AM 21.2 °F 8.3 °F 14.0 °F 74% 30.05 in 10.0 mi West 13.8 mph - N/A   Clear
6:55 AM 21.2 °F 10.1 °F 14.0 °F 74% 30.05 in 10.0 mi West 10.4 mph - N/A   Clear
7:15 AM 21.2 °F 10.1 °F 14.0 °F 74% 30.05 in 10.0 mi West 10.4 mph - N/A   Clear
7:35 AM 24.8 °F 14.6 °F 15.8 °F 69% 30.06 in 10.0 mi WNW 10.4 mph - N/A   Clear
7:55 AM 26.6 °F 16.2 °F 17.6 °F 69% 30.06 in 10.0 mi WNW 11.5 mph - N/A   Clear
8:15 AM 28.4 °F 19.7 °F 19.4 °F 69% 30.07 in 10.0 mi WNW 9.2 mph - N/A   Clear
8:35 AM 32.0 °F 24.8 °F 21.2 °F 64% 30.07 in 10.0 mi WNW 8.1 mph - N/A   Clear
8:55 AM 33.8 °F 25.3 °F 21.2 °F 60% 30.07 in 10.0 mi West 11.5 mph - N/A   Clear
9:15 AM 37.4 °F 29.3 °F 21.2 °F 52% 30.07 in 10.0 mi WNW 12.7 mph - N/A   Clear
9:35 AM 37.4 °F 30.8 °F 23.0 °F 56% 30.06 in 10.0 mi WNW 9.2 mph - N/A   Clear
9:55 AM 39.2 °F 34.2 °F 19.4 °F 45% 30.06 in 10.0 mi WSW 6.9 mph - N/A   Clear
10:15 AM 42.8 °F 37.5 °F 21.2 °F 42% 30.06 in 10.0 mi WSW 9.2 mph - N/A   Clear
10:35 AM 42.8 °F 37.0 °F 21.2 °F 42% 30.05 in 10.0 mi SW 10.4 mph - N/A   Clear
10:55 AM 44.6 °F 38.8 °F 21.2 °F 39% 30.04 in 10.0 mi SW 11.5 mph - N/A   Clear
11:15 AM 44.6 °F 38.8 °F 21.2 °F 39% 30.04 in 10.0 mi SW 11.5 mph - N/A   Clear
11:35 AM 46.4 °F 41.1 °F 21.2 °F 37% 30.03 in 10.0 mi SW 11.5 mph - N/A   Clear
11:55 AM 46.4 °F 40.1 °F 23.0 °F 40% 30.03 in 10.0 mi SW 15.0 mph - N/A   Clear
12:15 PM 46.4 °F 39.5 °F 21.2 °F 37% 30.01 in 10.0 mi SW 17.3 mph 23.0 mph N/A   Clear
12:35 PM 48.2 °F - 21.2 °F 34% 30.01 in 10.0 mi WSW 15.0 mph 20.7 mph N/A   Clear
12:55 PM 50.0 °F - 21.2 °F 32% 29.99 in 10.0 mi SW 17.3 mph 20.7 mph N/A   Clear
1:15 PM 50.0 °F - 19.4 °F 30% 29.98 in 10.0 mi SW 17.3 mph - N/A   Clear
1:35 PM 50.0 °F - 19.4 °F 30% 29.98 in 10.0 mi WSW 18.4 mph 23.0 mph N/A   Clear
1:55 PM 51.8 °F - 19.4 °F 28% 29.97 in 10.0 mi WSW 15.0 mph 19.6 mph N/A   Clear
2:15 PM 51.8 °F - 19.4 °F 28% 29.96 in 10.0 mi WSW 17.3 mph 20.7 mph N/A   Clear
2:35 PM 53.6 °F - 19.4 °F 26% 29.95 in 10.0 mi WSW 17.3 mph 25.3 mph N/A   Clear
2:55 PM 53.6 °F - 17.6 °F 24% 29.94 in 10.0 mi West 17.3 mph 25.3 mph N/A   Clear
3:15 PM 55.4 °F - 17.6 °F 23% 29.94 in 10.0 mi WSW 17.3 mph 26.5 mph N/A   Clear
3:35 PM 55.4 °F - 17.6 °F 23% 29.94 in 10.0 mi SW 16.1 mph 26.5 mph N/A   Clear
3:55 PM 55.4 °F - 17.6 °F 23% 29.94 in 10.0 mi WSW 17.3 mph 21.9 mph N/A   Clear
4:15 PM 55.4 °F - 17.6 °F 23% 29.93 in 10.0 mi SW 12.7 mph 21.9 mph N/A   Clear
4:35 PM 53.6 °F - 17.6 °F 24% 29.93 in 10.0 mi SSW 13.8 mph - N/A   Clear
4:55 PM 51.8 °F - 17.6 °F 26% 29.93 in 10.0 mi SSW 10.4 mph - N/A   Clear
5:15 PM 50.0 °F - 19.4 °F 30% 29.93 in 10.0 mi SSW 9.2 mph - N/A   Clear
5:35 PM 46.4 °F 41.9 °F 19.4 °F 34% 29.94 in 10.0 mi SSW 9.2 mph - N/A   Clear
5:55 PM 44.6 °F 41.4 °F 19.4 °F 37% 29.94 in 10.0 mi SSW 5.8 mph - N/A   Clear
6:15 PM 42.8 °F 38.0 °F 19.4 °F 39% 29.94 in 10.0 mi SSW 8.1 mph - N/A   Clear
6:35 PM 39.2 °F 35.0 °F 19.4 °F 45% 29.95 in 10.0 mi SW 5.8 mph - N/A   Clear
6:55 PM 39.2 °F 35.0 °F 19.4 °F 45% 29.96 in 10.0 mi SW 5.8 mph - N/A   Clear
7:15 PM 39.2 °F - 19.4 °F 45% 29.96 in 10.0 mi Calm Calm - N/A   Clear
7:35 PM 37.4 °F - 19.4 °F 48% 29.97 in 10.0 mi Calm Calm - N/A   Clear
7:55 PM 33.8 °F - 19.4 °F 56% 29.98 in 10.0 mi Calm Calm - N/A   Clear
8:15 PM 35.6 °F 32.8 °F 19.4 °F 52% 29.97 in 10.0 mi West 3.5 mph - N/A   Clear
8:35 PM 35.6 °F 29.9 °F 19.4 °F 52% 29.98 in 10.0 mi WSW 6.9 mph - N/A   Clear
8:55 PM 35.6 °F 32.8 °F 17.6 °F 48% 29.98 in 10.0 mi WNW 3.5 mph - N/A   Clear
9:15 PM 35.6 °F 31.7 °F 17.6 °F 48% 29.98 in 10.0 mi NW 4.6 mph - N/A   Clear
9:35 PM 33.8 °F 29.6 °F 15.8 °F 48% 29.99 in 10.0 mi West 4.6 mph - N/A   Clear
9:55 PM 33.8 °F 29.6 °F 15.8 °F 48% 29.99 in 10.0 mi WNW 4.6 mph - N/A   Clear
10:15 PM 30.2 °F 22.6 °F 15.8 °F 55% 29.98 in 10.0 mi WSW 8.1 mph - N/A   Clear
10:35 PM 30.2 °F 23.4 °F 17.6 °F 60% 29.98 in 10.0 mi WSW 6.9 mph - N/A   Clear
10:55 PM 30.2 °F 24.3 °F 17.6 °F 60% 29.99 in 10.0 mi NNW 5.8 mph - N/A   Clear
11:15 PM 30.2 °F 26.7 °F 17.6 °F 60% 29.99 in 10.0 mi SW 3.5 mph - N/A   Clear
11:35 PM 28.4 °F 23.3 °F 15.8 °F 59% 29.98 in 10.0 mi North 4.6 mph - N/A   Clear
11:55 PM 26.6 °F 22.6 °F 15.8 °F 64% 29.99 in 10.0 mi NW 3.5 mph - N/A   Clear